sat.trackr.live / text

‹ back to catalog

STARLINK-35679

NORAD 66408 · 2025-257AE

PAYLOAD ACTIVE UNKNOWN

§ Identity

Operator
Country
US
Launch date
2025-11-09
Launch site
AFETR
Launch vehicle
Mass (kg)
RCS (m²)

Purposes: comms

External: N2YO · Heavens-Above · Gunter

§ Orbital elements

Epoch: 2026-05-25T05:14:19.546656Z

Period
93.85 min
Inclination
53.1586°
Eccentricity
0.0001154
Mean motion
15.34409614 rev/d
Perigee alt
461.9 km
Apogee alt
463.5 km
Semi-major
6,840.8 km
B*
8.5610e-4
RAAN
220.6024°
Arg perigee
84.9021°
Mean anomaly
275.2113°
Rev number
3,146

§ Raw data

STARLINK-356791 66408U 25257AE  26145.21828179  .00028668  00000+0  85610-3 0  99932 66408  53.1586 220.6024 0001154  84.9021 275.2113 15.34409614 31467

JSON: /api/v1/satellites/66408 · /tle

For live sub-satellite position, see the globe view (requires WebGL).

§ Visibility from observer

Set your observer location to see the next 7 days of passes ≥ 10°. The values pass through the URL so the page stays shareable.

No JS? Fill the form by hand. The geolocation button needs JavaScript.